Location: Chassagnes
(44.4047°N, 4.1657°E)
Time: 13:05:49
(UTC+00:00)

CZ-2D R/B - Pass Details

Date: 27 October 2020
Orbit: 521 x 538 km, 97.4° (Epoch: 23 November)

Event Time Altitude Azimuth Distance (km) Brightness Sun altitude
Rises 17:41:24 0° 154° (SSE) 2,651 6.6 -11.7°
Reaches altitude 10° 17:43:32 10° 149° (SSE) 1,764 5.7 -12.0°
Maximum altitude 17:47:14 50° 73° (ENE) 675 3.4 -12.7°
Drops below altitude 10° 17:50:56 10° 358° (N) 1,771 5.9 -13.3°
Sets 17:53:04 0° 353° (N) 2,663 6.8 -13.7°
